QPF
0.01 0.00 0.00 0.01 0.01 0.01 0.01 0.01 0.01 0.02 0.02 0.02 0.01 0.01 0.01 0.00 0.00 0.00 0.01 0.01 0.01 0.02 0.01 0.00 0.00 0.00 0.00 0.00 0.00 0.00 0.01 0.01 0.01 0.01 0.01 0.01 0.01 0.01 0.01 0.01 0.01 0.01 0.01 0.01
0.01 0.00 0.00 0.01 0.01 0.00 0.01 0.01 0.02 0.03 0.02 0.01 0.01 0.00 0.00 0.01 0.00 0.00 0.00 0.00 0.01 0.01 0.01 0.00 0.00 0.00 0.00 0.00 0.01 0.01 0.01 0.01 0.01 0.01 0.01 0.01 0.01 0.01 0.02 0.02 0.02 0.01 0.01 0.01
0.02 0.01 0.01 0.01 0.01 0.00 0.01 0.01 0.01 0.02 0.03 0.01 0.01 0.00 0.00 0.00 0.00 0.00 0.01 0.00 0.00 0.00 0.00 0.00 0.00 0.00 0.00 0.00 0.00 0.01 0.01 0.01 0.01 0.01 0.01 0.01 0.01 0.02 0.02 0.02 0.02 0.02 0.02 0.01
0.03 0.02 0.02 0.01 0.00 0.00 0.00 0.00 0.00 0.00 0.01 0.02 0.01 0.00 0.00 0.00 0.00 0.00 0.00 0.00 0.00 0.00 0.00 0.00 0.00 0.00 0.00 0.00 0.00 0.01 0.01 0.01 0.01 0.00 0.00 0.01 0.01 0.01 0.02 0.02 0.02 0.02 0.01 0.01
0.03 0.04 0.03 0.01 0.00 0.00 0.00 0.00 0.00 0.00 0.00 0.01 0.00 0.00 0.00 0.00 0.00 0.00 0.00 0.00 0.00 0.00 0.00 0.00 0.00 0.00 0.00 0.00 0.00 0.01 0.01 0.01 0.01 0.01 0.01 0.01 0.01 0.01 0.02 0.02 0.02 0.02 0.01 0.01
0.02 0.04 0.04 0.01 0.00 0.00 0.00 0.01 0.00 0.00 0.00 0.00 0.00 0.01 0.00 0.00 0.00 0.00 0.00 0.00 0.00 0.00 0.00 0.00 0.00 0.00 0.00 0.00 0.01 0.01 0.02 0.03 0.02 0.02 0.01 0.01 0.02 0.02 0.02 0.02 0.02 0.02 0.02 0.02
0.02 0.03 0.03 0.01 0.01 0.00 0.01 0.01 0.00 0.00 0.00 0.01 0.01 0.01 0.00 0.00 0.00 0.00 0.00 0.00 0.00 0.00 0.00 0.00 0.00 0.00 0.00 0.01 0.01 0.02 0.02 0.02 0.02 0.02 0.02 0.02 0.02 0.02 0.02 0.03 0.04 0.03 0.03 0.02
0.02 0.04 0.02 0.01 0.01 0.01 0.02 0.01 0.00 0.00 0.01 0.02 0.01 0.01 0.00 0.00 0.00 0.00 0.00 0.00 0.00 0.00 0.00 0.00 0.00 0.00 0.01 0.01 0.01 0.02 0.02 0.02 0.02 0.02 0.01 0.01 0.02 0.03 0.03 0.03 0.04 0.04 0.04 0.03
0.02 0.02 0.02 0.01 0.01 0.01 0.01 0.01 0.01 0.01 0.02 0.02 0.02 0.02 0.01 0.00 0.00 0.00 0.00 0.00 0.00 0.01 0.01 0.01 0.01 0.01 0.01 0.01 0.01 0.01 0.01 0.02 0.01 0.01 0.01 0.02 0.02 0.04 0.04 0.04 0.04 0.04 0.04 0.04
0.01 0.01 0.00 0.01 0.01 0.00 0.00 0.01 0.01 0.02 0.02 0.03 0.03 0.03 0.02 0.01 0.00 0.00 0.00 0.00 0.01 0.01 0.01 0.01 0.01 0.01 0.01 0.01 0.01 0.01 0.01 0.01 0.02 0.01 0.01 0.02 0.03 0.04 0.04 0.04 0.04 0.04 0.04 0.03
0.00 0.00 0.00 0.00 0.00 0.00 0.01 0.01 0.01 0.02 0.02 0.02 0.01 0.01 0.01 0.01 0.00 0.00 0.00 0.00 0.01 0.01 0.01 0.01 0.01 0.01 0.01 0.01 0.01 0.01 0.01 0.01 0.02 0.02 0.02 0.02 0.03 0.03 0.03 0.03 0.03 0.04 0.03 0.03
0.00 0.00 0.00 0.00 0.01 0.01 0.01 0.01 0.01 0.01 0.01 0.00 0.00 0.00 0.00 0.00 0.00 0.00 0.00 0.00 0.01 0.01 0.01 0.01 0.01 0.01 0.01 0.01 0.01 0.01 0.01 0.01 0.02 0.03 0.03 0.03 0.03 0.03 0.04 0.04 0.04 0.04 0.05 0.05
0.00 0.00 0.00 0.00 0.01 0.01 0.00 0.00 0.01 0.00 0.00 0.00 0.00 0.00 0.00 0.00 0.00 0.00 0.01 0.01 0.01 0.01 0.01 0.01 0.01 0.01 0.01 0.01 0.02 0.01 0.01 0.01 0.01 0.02 0.03 0.04 0.04 0.04 0.04 0.03 0.04 0.04 0.04 0.05
0.00 0.00 0.00 0.00 0.01 0.01 0.00 0.00 0.00 0.00 0.00 0.00 0.00 0.00 0.00 0.00 0.00 0.01 0.01 0.01 0.01 0.01 0.01 0.00 0.01 0.01 0.02 0.03 0.03 0.02 0.02 0.02 0.02 0.02 0.03 0.04 0.06 0.06 0.04 0.03 0.03 0.03 0.03 0.04
0.00 0.00 0.00 0.00 0.00 0.00 0.00 0.00 0.00 0.00 0.00 0.00 0.00 0.00 0.00 0.00 0.00 0.01 0.01 0.01 0.01 0.01 0.01 0.01 0.01 0.02 0.02 0.04 0.03 0.02 0.02 0.02 0.03 0.03 0.03 0.03 0.05 0.08 0.06 0.04 0.05 0.04 0.03 0.03
0.00 0.00 0.00 0.00 0.00 0.00 0.00 0.00 0.00 0.00 0.00 0.00 0.00 0.00 0.00 0.00 0.00 0.00 0.01 0.01 0.02 0.01 0.02 0.02 0.01 0.01 0.02 0.03 0.02 0.02 0.02 0.02 0.03 0.04 0.04 0.03 0.04 0.06 0.07 0.05 0.04 0.05 0.05 0.04
0.01 0.01 0.00 0.00 0.00 0.00 0.00 0.00 0.00 0.00 0.00 0.01 0.00 0.00 0.00 0.00 0.00 0.00 0.00 0.01 0.01 0.01 0.01 0.02 0.02 0.02 0.02 0.03 0.02 0.02 0.02 0.03 0.03 0.04 0.04 0.03 0.03 0.03 0.04 0.05 0.05 0.04 0.04 0.05
0.01 0.01 0.00 0.00 0.00 0.00 0.00 0.00 0.00 0.00 0.00 0.00 0.01 0.00 0.00 0.00 0.00 0.00 0.00 0.00 0.00 0.01 0.01 0.02 0.02 0.01 0.01 0.01 0.02 0.02 0.03 0.04 0.04 0.04 0.05 0.03 0.02 0.02 0.02 0.02 0.04 0.05 0.05 0.05
0.01 0.00 0.00 0.00 0.00 0.00 0.00 0.00 0.00 0.00 0.00 0.01 0.01 0.01 0.01 0.01 0.00 0.00 0.00 0.00 0.01 0.01 0.01 0.01 0.01 0.01 0.01 0.01 0.01 0.01 0.02 0.03 0.02 0.03 0.05 0.03 0.01 0.01 0.01 0.01 0.02 0.03 0.04 0.05
0.00 0.00 0.00 0.00 0.00 0.00 0.00 0.00 0.00 0.00 0.01 0.01 0.01 0.01 0.01 0.01 0.01 0.01 0.01 0.01 0.01 0.02 0.02 0.02 0.01 0.01 0.02 0.02 0.02 0.02 0.02 0.02 0.02 0.02 0.04 0.05 0.02 0.01 0.01 0.01 0.02 0.02 0.03 0.04
0.00 0.00 0.00 0.00 0.00 0.00 0.00 0.00 0.00 0.01 0.01 0.02 0.02 0.01 0.01 0.01 0.01 0.01 0.01 0.01 0.01 0.01 0.01 0.01 0.01 0.02 0.02 0.03 0.02 0.02 0.03 0.03 0.04 0.04 0.05 0.07 0.05 0.03 0.02 0.02 0.02 0.02 0.02 0.03
0.00 0.00 0.00 0.00 0.00 0.00 0.00 0.00 0.00 0.01 0.01 0.02 0.01 0.01 0.01 0.00 0.00 0.01 0.01 0.01 0.01 0.01 0.01 0.01 0.02 0.02 0.03 0.03 0.02 0.03 0.03 0.03 0.03 0.04 0.05 0.07 0.08 0.06 0.04 0.03 0.04 0.03 0.03 0.03
0.00 0.00 0.00 0.00 0.00 0.00 0.00 0.00 0.01 0.01 0.02 0.02 0.01 0.01 0.01 0.01 0.01 0.01 0.02 0.02 0.01 0.01 0.02 0.02 0.02 0.02 0.02 0.01 0.01 0.01 0.02 0.02 0.03 0.04 0.04 0.05 0.07 0.06 0.04 0.03 0.03 0.03 0.03 0.03
0.00 0.00 0.00 0.00 0.00 0.00 0.00 0.01 0.01 0.02 0.02 0.02 0.02 0.02 0.02 0.02 0.02 0.02 0.02 0.02 0.02 0.02 0.02 0.02 0.01 0.01 0.01 0.01 0.00 0.01 0.01 0.02 0.03 0.03 0.03 0.03 0.04 0.06 0.05 0.04 0.03 0.03 0.02 0.01
0.01 0.01 0.01 0.01 0.00 0.01 0.01 0.01 0.02 0.02 0.02 0.01 0.01 0.02 0.02 0.02 0.01 0.01 0.01 0.01 0.02 0.02 0.01 0.01 0.01 0.01 0.01 0.00 0.01 0.01 0.01 0.02 0.02 0.03 0.03 0.03 0.03 0.03 0.03 0.03 0.03 0.02 0.02 0.01
0.01 0.01 0.01 0.01 0.01 0.01 0.02 0.02 0.02 0.02 0.02 0.01 0.01 0.01 0.01 0.01 0.01 0.01 0.01 0.01 0.02 0.02 0.02 0.02 0.01 0.01 0.00 0.00 0.00 0.01 0.01 0.01 0.02 0.02 0.02 0.02 0.02 0.02 0.02 0.02 0.02 0.02 0.02 0.01
0.01 0.00 0.00 0.01 0.01 0.01 0.01 0.02 0.02 0.02 0.02 0.02 0.02 0.01 0.01 0.01 0.02 0.02 0.01 0.01 0.01 0.02 0.02 0.02 0.02 0.01 0.01 0.01 0.01 0.01 0.01 0.01 0.01 0.01 0.01 0.02 0.02 0.01 0.01 0.01 0.01 0.01 0.01 0.01
MSLP
1007.93 1008.44 1008.86 1009.17 1009.37 1009.45 1009.40 1009.23 1008.96 1008.60 1008.20 1007.78 1007.41 1007.12 1006.94 1006.90 1007.00 1007.22 1007.56 1007.99 1008.48 1009.01 1009.55 1010.11 1010.69 1011.28 1011.89 1012.52 1013.15 1013.79 1014.40 1014.98 1015.50 1015.97 1016.37 1016.71 1017.01 1017.26 1017.49 1017.70 1017.88 1018.03 1018.14 1018.21
1007.77 1008.22 1008.55 1008.77 1008.85 1008.81 1008.64 1008.38 1008.04 1007.66 1007.27 1006.90 1006.62 1006.44 1006.38 1006.47 1006.68 1007.01 1007.45 1007.95 1008.50 1009.08 1009.67 1010.27 1010.88 1011.51 1012.15 1012.81 1013.47 1014.11 1014.73 1015.31 1015.83 1016.29 1016.68 1017.00 1017.28 1017.51 1017.72 1017.90 1018.07 1018.21 1018.33 1018.40
1007.65 1008.01 1008.26 1008.38 1008.37 1008.23 1007.98 1007.64 1007.25 1006.84 1006.45 1006.11 1005.87 1005.76 1005.77 1005.93 1006.23 1006.63 1007.13 1007.70 1008.31 1008.95 1009.60 1010.26 1010.94 1011.62 1012.31 1013.00 1013.69 1014.36 1014.99 1015.57 1016.09 1016.54 1016.91 1017.22 1017.47 1017.68 1017.87 1018.03 1018.18 1018.31 1018.42 1018.50
1007.59 1007.85 1008.01 1008.04 1007.96 1007.76 1007.45 1007.08 1006.65 1006.22 1005.82 1005.49 1005.27 1005.17 1005.21 1005.40 1005.72 1006.16 1006.70 1007.31 1007.97 1008.67 1009.38 1010.11 1010.85 1011.59 1012.34 1013.08 1013.81 1014.50 1015.16 1015.75 1016.28 1016.72 1017.09 1017.39 1017.63 1017.82 1017.99 1018.13 1018.27 1018.39 1018.50 1018.58
1007.59 1007.73 1007.80 1007.77 1007.63 1007.40 1007.08 1006.69 1006.26 1005.83 1005.43 1005.09 1004.86 1004.75 1004.78 1004.96 1005.27 1005.71 1006.25 1006.88 1007.58 1008.31 1009.08 1009.87 1010.67 1011.47 1012.27 1013.06 1013.83 1014.56 1015.24 1015.85 1016.39 1016.85 1017.23 1017.54 1017.78 1017.98 1018.14 1018.28 1018.41 1018.52 1018.63 1018.71
1007.62 1007.65 1007.63 1007.54 1007.39 1007.15 1006.84 1006.48 1006.08 1005.67 1005.28 1004.94 1004.70 1004.56 1004.56 1004.70 1004.98 1005.39 1005.91 1006.53 1007.23 1007.99 1008.79 1009.62 1010.46 1011.31 1012.16 1012.99 1013.79 1014.55 1015.26 1015.90 1016.47 1016.96 1017.36 1017.70 1017.96 1018.18 1018.36 1018.52 1018.65 1018.77 1018.87 1018.94
1007.65 1007.57 1007.48 1007.37 1007.21 1007.00 1006.74 1006.43 1006.08 1005.71 1005.35 1005.03 1004.78 1004.62 1004.59 1004.68 1004.91 1005.27 1005.75 1006.34 1007.03 1007.78 1008.59 1009.43 1010.30 1011.17 1012.05 1012.90 1013.73 1014.52 1015.26 1015.93 1016.54 1017.07 1017.52 1017.90 1018.21 1018.47 1018.69 1018.87 1019.02 1019.14 1019.24 1019.31
1007.67 1007.51 1007.37 1007.24 1007.10 1006.94 1006.74 1006.51 1006.23 1005.93 1005.62 1005.33 1005.08 1004.92 1004.85 1004.90 1005.08 1005.39 1005.82 1006.37 1007.02 1007.75 1008.54 1009.38 1010.24 1011.11 1011.99 1012.85 1013.69 1014.50 1015.26 1015.97 1016.61 1017.19 1017.70 1018.14 1018.52 1018.84 1019.10 1019.32 1019.49 1019.63 1019.73 1019.79
1007.66 1007.45 1007.29 1007.17 1007.07 1006.97 1006.85 1006.69 1006.50 1006.27 1006.02 1005.77 1005.55 1005.39 1005.31 1005.33 1005.47 1005.73 1006.12 1006.62 1007.22 1007.91 1008.67 1009.47 1010.30 1011.15 1012.01 1012.86 1013.69 1014.50 1015.28 1016.02 1016.71 1017.34 1017.91 1018.41 1018.86 1019.24 1019.56 1019.82 1020.02 1020.17 1020.28 1020.32
1007.64 1007.41 1007.26 1007.17 1007.12 1007.08 1007.03 1006.96 1006.84 1006.69 1006.51 1006.31 1006.12 1005.97 1005.89 1005.90 1006.01 1006.24 1006.58 1007.04 1007.59 1008.23 1008.94 1009.69 1010.48 1011.28 1012.11 1012.93 1013.74 1014.55 1015.33 1016.09 1016.81 1017.48 1018.11 1018.68 1019.18 1019.62 1019.98 1020.28 1020.52 1020.69 1020.79 1020.83
1007.64 1007.44 1007.32 1007.26 1007.26 1007.28 1007.30 1007.29 1007.24 1007.15 1007.02 1006.86 1006.71 1006.59 1006.52 1006.52 1006.62 1006.82 1007.13 1007.55 1008.06 1008.65 1009.30 1010.00 1010.73 1011.48 1012.26 1013.04 1013.83 1014.61 1015.39 1016.15 1016.89 1017.60 1018.27 1018.88 1019.43 1019.91 1020.32 1020.65 1020.91 1021.09 1021.20 1021.24
1007.70 1007.55 1007.48 1007.47 1007.52 1007.58 1007.64 1007.68 1007.67 1007.61 1007.52 1007.39 1007.27 1007.16 1007.10 1007.11 1007.21 1007.40 1007.68 1008.07 1008.54 1009.08 1009.68 1010.33 1011.00 1011.71 1012.43 1013.17 1013.92 1014.68 1015.44 1016.20 1016.94 1017.66 1018.35 1018.99 1019.56 1020.07 1020.51 1020.86 1021.14 1021.33 1021.45 1021.49
1007.84 1007.76 1007.75 1007.80 1007.88 1007.97 1008.05 1008.09 1008.10 1008.05 1007.97 1007.86 1007.74 1007.65 1007.60 1007.61 1007.70 1007.89 1008.16 1008.52 1008.96 1009.46 1010.02 1010.62 1011.25 1011.91 1012.59 1013.29 1014.00 1014.73 1015.47 1016.21 1016.94 1017.66 1018.34 1018.99 1019.57 1020.09 1020.53 1020.90 1021.19 1021.40 1021.53 1021.60
1008.09 1008.08 1008.13 1008.22 1008.32 1008.43 1008.50 1008.54 1008.52 1008.47 1008.37 1008.25 1008.13 1008.03 1007.98 1007.99 1008.08 1008.25 1008.52 1008.86 1009.27 1009.75 1010.28 1010.84 1011.44 1012.06 1012.71 1013.37 1014.05 1014.75 1015.46 1016.18 1016.89 1017.59 1018.26 1018.89 1019.47 1019.98 1020.43 1020.80 1021.10 1021.33 1021.49 1021.59
1008.42 1008.49 1008.60 1008.72 1008.84 1008.93 1008.98 1008.99 1008.94 1008.84 1008.72 1008.57 1008.43 1008.32 1008.25 1008.26 1008.34 1008.50 1008.75 1009.07 1009.47 1009.93 1010.43 1010.98 1011.55 1012.15 1012.77 1013.41 1014.07 1014.74 1015.43 1016.12 1016.80 1017.48 1018.12 1018.73 1019.29 1019.79 1020.24 1020.61 1020.93 1021.18 1021.37 1021.52
1008.83 1008.96 1009.11 1009.25 1009.37 1009.44 1009.46 1009.43 1009.33 1009.19 1009.02 1008.84 1008.67 1008.53 1008.44 1008.43 1008.49 1008.64 1008.87 1009.18 1009.56 1010.00 1010.49 1011.02 1011.59 1012.18 1012.79 1013.41 1014.06 1014.72 1015.38 1016.04 1016.70 1017.34 1017.96 1018.54 1019.08 1019.57 1020.01 1020.39 1020.72 1021.00 1021.24 1021.43
1009.27 1009.45 1009.63 1009.78 1009.89 1009.94 1009.92 1009.84 1009.70 1009.51 1009.30 1009.07 1008.87 1008.70 1008.58 1008.54 1008.58 1008.71 1008.91 1009.20 1009.57 1010.00 1010.48 1011.00 1011.56 1012.15 1012.76 1013.38 1014.02 1014.67 1015.32 1015.96 1016.60 1017.22 1017.80 1018.36 1018.88 1019.35 1019.79 1020.17 1020.52 1020.83 1021.11 1021.36
1009.70 1009.92 1010.12 1010.27 1010.36 1010.38 1010.33 1010.20 1010.02 1009.79 1009.54 1009.28 1009.04 1008.84 1008.69 1008.62 1008.63 1008.73 1008.91 1009.17 1009.52 1009.93 1010.40 1010.92 1011.48 1012.07 1012.68 1013.31 1013.96 1014.60 1015.24 1015.88 1016.49 1017.09 1017.65 1018.18 1018.68 1019.15 1019.57 1019.97 1020.34 1020.68 1020.99 1021.28
1010.09 1010.33 1010.53 1010.67 1010.75 1010.74 1010.66 1010.50 1010.29 1010.03 1009.75 1009.46 1009.19 1008.96 1008.79 1008.68 1008.66 1008.72 1008.87 1009.11 1009.42 1009.81 1010.27 1010.78 1011.34 1011.93 1012.56 1013.20 1013.84 1014.49 1015.13 1015.76 1016.36 1016.93 1017.48 1017.99 1018.48 1018.93 1019.35 1019.75 1020.13 1020.49 1020.83 1021.16
1010.42 1010.66 1010.85 1010.98 1011.03 1011.00 1010.90 1010.72 1010.49 1010.21 1009.91 1009.60 1009.32 1009.07 1008.87 1008.73 1008.68 1008.70 1008.81 1009.01 1009.29 1009.66 1010.09 1010.59 1011.14 1011.74 1012.36 1013.01 1013.66 1014.32 1014.95 1015.57 1016.16 1016.72 1017.25 1017.75 1018.21 1018.66 1019.08 1019.48 1019.86 1020.24 1020.59 1020.94
1010.67 1010.90 1011.07 1011.18 1011.21 1011.16 1011.04 1010.85 1010.61 1010.33 1010.02 1009.71 1009.41 1009.15 1008.93 1008.77 1008.68 1008.66 1008.73 1008.89 1009.13 1009.46 1009.87 1010.35 1010.88 1011.47 1012.09 1012.74 1013.39 1014.04 1014.68 1015.28 1015.86 1016.41 1016.92 1017.40 1017.86 1018.29 1018.70 1019.10 1019.48 1019.86 1020.23 1020.59
1010.85 1011.06 1011.21 1011.29 1011.30 1011.23 1011.10 1010.90 1010.66 1010.38 1010.08 1009.77 1009.48 1009.21 1008.97 1008.79 1008.67 1008.61 1008.64 1008.75 1008.95 1009.24 1009.61 1010.05 1010.57 1011.13 1011.74 1012.38 1013.02 1013.66 1014.29 1014.88 1015.45 1015.98 1016.48 1016.95 1017.39 1017.80 1018.21 1018.60 1018.98 1019.36 1019.73 1020.09
1010.98 1011.15 1011.27 1011.32 1011.30 1011.22 1011.08 1010.89 1010.65 1010.39 1010.10 1009.81 1009.52 1009.25 1009.01 1008.80 1008.65 1008.57 1008.55 1008.61 1008.76 1009.00 1009.32 1009.73 1010.20 1010.74 1011.32 1011.94 1012.56 1013.18 1013.79 1014.37 1014.93 1015.44 1015.92 1016.38 1016.80 1017.21 1017.60 1017.99 1018.37 1018.75 1019.12 1019.48
1011.06 1011.19 1011.27 1011.29 1011.26 1011.16 1011.02 1010.83 1010.61 1010.37 1010.11 1009.83 1009.56 1009.30 1009.05 1008.84 1008.66 1008.54 1008.48 1008.50 1008.59 1008.78 1009.05 1009.40 1009.83 1010.32 1010.87 1011.45 1012.04 1012.64 1013.23 1013.79 1014.32 1014.82 1015.29 1015.72 1016.14 1016.54 1016.92 1017.30 1017.68 1018.06 1018.44 1018.80
1011.11 1011.20 1011.25 1011.24 1011.18 1011.08 1010.93 1010.76 1010.56 1010.34 1010.11 1009.87 1009.62 1009.37 1009.13 1008.90 1008.71 1008.56 1008.46 1008.43 1008.47 1008.60 1008.81 1009.11 1009.48 1009.93 1010.42 1010.96 1011.52 1012.08 1012.64 1013.17 1013.68 1014.16 1014.61 1015.04 1015.44 1015.84 1016.22 1016.60 1016.98 1017.36 1017.74 1018.12
1011.13 1011.19 1011.19 1011.16 1011.08 1010.97 1010.84 1010.69 1010.51 1010.33 1010.13 1009.92 1009.69 1009.46 1009.23 1009.01 1008.80 1008.63 1008.49 1008.42 1008.41 1008.48 1008.64 1008.88 1009.19 1009.58 1010.02 1010.51 1011.02 1011.55 1012.07 1012.57 1013.06 1013.52 1013.95 1014.36 1014.76 1015.15 1015.53 1015.91 1016.29 1016.68 1017.07 1017.46
1011.12 1011.14 1011.11 1011.06 1010.97 1010.86 1010.74 1010.61 1010.47 1010.32 1010.15 1009.97 1009.78 1009.58 1009.36 1009.14 1008.92 1008.73 1008.57 1008.46 1008.41 1008.43 1008.53 1008.71 1008.97 1009.30 1009.68 1010.12 1010.59 1011.07 1011.55 1012.02 1012.48 1012.91 1013.33 1013.73 1014.12 1014.50 1014.88 1015.26 1015.65 1016.04 1016.44 1016.83
Thickness
5685 5691 5692 5688 5686 5686 5682 5680 5674 5679 5683 5691 5698 5699 5700 5702 5701 5699 5697 5695 5693 5690 5689 5688 5687 5685 5683 5681 5680 5678 5675 5672 5671 5670 5669 5666 5664 5662 5660 5659 5657 5656 5654 5653
5674 5684 5685 5681 5685 5683 5681 5682 5680 5679 5680 5693 5695 5695 5694 5693 5691 5688 5687 5686 5685 5685 5683 5682 5681 5679 5676 5674 5673 5671 5668 5665 5664 5663 5661 5658 5656 5654 5652 5650 5649 5648 5646 5645
5659 5672 5671 5667 5681 5681 5680 5683 5679 5670 5674 5684 5682 5681 5681 5681 5680 5678 5678 5678 5678 5678 5677 5676 5676 5674 5670 5668 5666 5663 5660 5658 5656 5655 5652 5650 5648 5646 5644 5642 5641 5639 5638 5637
5652 5654 5641 5668 5689 5685 5678 5677 5676 5672 5673 5673 5673 5674 5676 5676 5672 5671 5671 5670 5671 5672 5672 5671 5671 5669 5666 5662 5659 5656 5653 5650 5649 5646 5644 5642 5639 5637 5635 5635 5633 5630 5629 5628
5642 5639 5647 5664 5673 5671 5665 5661 5667 5664 5663 5664 5667 5666 5665 5666 5665 5664 5664 5664 5664 5665 5665 5665 5664 5663 5659 5654 5651 5648 5645 5643 5641 5638 5636 5633 5630 5628 5627 5625 5624 5622 5621 5620
5636 5628 5628 5649 5662 5670 5661 5645 5655 5655 5652 5652 5652 5641 5644 5653 5654 5654 5655 5656 5656 5656 5657 5656 5656 5655 5651 5646 5643 5640 5637 5635 5633 5631 5628 5625 5623 5621 5619 5617 5616 5615 5613 5612
5631 5627 5634 5646 5655 5657 5634 5631 5644 5645 5643 5641 5637 5634 5640 5643 5643 5644 5645 5646 5647 5647 5646 5646 5647 5645 5642 5638 5635 5634 5631 5628 5625 5622 5620 5618 5616 5614 5611 5610 5608 5606 5605 5605
5629 5621 5623 5641 5642 5632 5629 5636 5636 5634 5633 5631 5630 5631 5632 5632 5632 5633 5634 5635 5636 5635 5635 5636 5637 5635 5632 5629 5628 5626 5623 5619 5617 5614 5612 5611 5608 5606 5604 5602 5599 5598 5596 5596
5625 5622 5631 5635 5631 5631 5631 5627 5626 5624 5623 5622 5620 5620 5621 5621 5622 5623 5624 5624 5625 5624 5624 5625 5626 5625 5621 5620 5620 5617 5613 5609 5607 5606 5604 5602 5599 5597 5595 5593 5591 5590 5589 5588
5621 5623 5625 5626 5625 5623 5622 5618 5617 5616 5615 5614 5611 5611 5611 5611 5612 5612 5613 5614 5614 5614 5613 5613 5615 5614 5612 5611 5610 5607 5603 5601 5599 5597 5595 5593 5591 5589 5586 5584 5583 5583 5582 5580
5612 5615 5614 5615 5614 5613 5611 5609 5608 5607 5606 5605 5603 5602 5602 5602 5602 5602 5604 5604 5604 5603 5603 5603 5604 5603 5603 5601 5599 5596 5594 5592 5589 5587 5585 5583 5581 5579 5578 5577 5577 5576 5575 5575
5600 5606 5603 5602 5605 5604 5600 5598 5596 5595 5595 5596 5594 5593 5593 5593 5593 5593 5594 5594 5594 5594 5593 5593 5593 5592 5592 5592 5590 5587 5585 5583 5580 5578 5575 5573 5571 5570 5570 5570 5570 5570 5569 5568
5600 5600 5598 5596 5595 5594 5591 5590 5588 5586 5585 5584 5585 5584 5584 5583 5584 5584 5584 5584 5584 5583 5583 5583 5582 5581 5581 5581 5580 5578 5577 5575 5572 5570 5568 5566 5565 5563 5561 5561 5561 5561 5561 5560
5593 5590 5586 5585 5583 5583 5582 5581 5580 5578 5577 5576 5575 5575 5574 5574 5574 5574 5573 5573 5573 5573 5573 5572 5571 5570 5570 5571 5570 5569 5568 5566 5564 5562 5560 5559 5558 5557 5556 5554 5552 5550 5551 5551
5583 5580 5578 5577 5576 5574 5573 5572 5570 5568 5567 5567 5566 5565 5564 5564 5563 5563 5563 5563 5563 5562 5562 5561 5560 5559 5560 5560 5560 5559 5557 5555 5554 5552 5551 5550 5550 5549 5548 5547 5545 5543 5541 5541
5573 5571 5569 5566 5564 5564 5563 5561 5560 5559 5558 5557 5556 5555 5554 5554 5553 5553 5553 5552 5551 5550 5550 5549 5548 5548 5549 5549 5549 5548 5547 5546 5544 5542 5542 5541 5540 5539 5539 5537 5536 5534 5532 5531
5562 5559 5557 5555 5554 5553 5553 5552 5551 5551 5550 5548 5547 5547 5546 5545 5543 5543 5542 5542 5541 5540 5540 5539 5538 5538 5538 5538 5537 5537 5536 5535 5535 5533 5532 5532 5531 5530 5529 5528 5527 5525 5524 5523
5557 5554 5551 5549 5547 5545 5544 5544 5544 5543 5542 5541 5540 5538 5537 5535 5534 5533 5532 5531 5531 5530 5530 5529 5528 5527 5527 5527 5526 5525 5525 5525 5524 5524 5523 5522 5522 5521 5520 5519 5518 5517 5515 5514
5549 5547 5544 5542 5540 5538 5536 5535 5535 5535 5534 5532 5530 5528 5528 5527 5526 5525 5523 5521 5520 5519 5519 5519 5518 5517 5516 5516 5515 5514 5514 5514 5514 5514 5514 5513 5513 5513 5512 5511 5510 5509 5508 5506
5541 5539 5537 5535 5533 5530 5528 5527 5526 5525 5523 5522 5520 5519 5519 5518 5517 5516 5513 5511 5509 5508 5508 5507 5506 5506 5505 5504 5504 5503 5503 5503 5503 5503 5504 5503 5503 5504 5503 5503 5501 5500 5499 5496
5530 5529 5527 5526 5523 5522 5520 5518 5517 5515 5514 5512 5510 5509 5508 5508 5507 5506 5503 5500 5499 5498 5497 5496 5494 5494 5493 5493 5492 5492 5492 5492 5492 5493 5493 5494 5493 5494 5494 5493 5492 5490 5489 5487
5521 5519 5517 5516 5514 5512 5511 5509 5508 5506 5504 5502 5501 5500 5498 5497 5496 5494 5492 5490 5489 5487 5485 5484 5483 5482 5482 5481 5481 5481 5482 5482 5482 5482 5483 5484 5484 5484 5484 5484 5483 5481 5479 5478
5511 5509 5508 5507 5505 5503 5502 5500 5498 5496 5493 5492 5491 5489 5487 5485 5484 5482 5480 5479 5477 5476 5474 5473 5472 5472 5472 5471 5470 5471 5471 5472 5472 5472 5473 5474 5475 5475 5475 5475 5473 5472 5471 5469
5502 5501 5500 5499 5497 5494 5491 5490 5488 5486 5483 5481 5479 5478 5476 5474 5473 5472 5470 5468 5467 5465 5464 5463 5463 5462 5462 5461 5461 5461 5461 5462 5463 5464 5464 5464 5465 5465 5465 5465 5463 5463 5461 5460
5493 5492 5491 5490 5487 5485 5483 5481 5478 5475 5473 5471 5469 5467 5465 5464 5462 5460 5459 5457 5456 5455 5454 5454 5454 5453 5452 5452 5452 5452 5452 5452 5453 5454 5455 5454 5455 5455 5455 5454 5453 5452 5451 5450
5484 5482 5481 5479 5477 5475 5473 5470 5467 5465 5462 5460 5458 5456 5455 5453 5452 5450 5449 5447 5446 5445 5445 5444 5444 5444 5443 5442 5442 5442 5442 5443 5444 5444 5445 5445 5445 5445 5444 5444 5443 5442 5441 5440
5474 5473 5471 5469 5467 5465 5463 5460 5457 5455 5452 5450 5448 5447 5445 5444 5442 5440 5439 5438 5437 5436 5435 5435 5435 5434 5433 5433 5433 5433 5433 5434 5434 5434 5434 5434 5435 5435 5434 5434 5432 5432 5431 5430